Location: Ahstedt
(52.2048°N, 10.1060°E)
Time: 21:17:09
(UTC+00:00)

TIMED - Pass Details

Date: 18 January 2026
Orbit: 581 x 584 km, 74.1° (Epoch: 16 February)

Event Time Altitude Azimuth Distance (km) Brightness Sun altitude
Exits shadow 04:44:54 80° 228° (SW) 598 4.3 -22.9°
Maximum altitude 04:45:07 86° 296° (WNW) 591 4.3 -22.9°
Drops below altitude 10° 04:49:23 10° 25° (NNE) 1,913 7.3 -22.2°
Sets 04:51:37 0° 26° (NNE) 2,818 8.2 -21.9°
